RH
99 99 98 96 93 93 92 96 95 87 81 82 75 72 77 86 82 85 78 86 74 74 71 53 45 48 46 45 43 43 41 40 44 50 46 41 41 36 32 30 25 23 21 25 27
99 99 98 97 96 96 93 96 94 98 92 80 75 71 74 85 75 66 90 78 74 60 53 47 42 44 46 48 46 45 46 41 44 42 45 42 38 35 32 28 25 23 24 25 32
100 100 98 97 97 96 95 94 94 95 92 96 67 75 84 79 54 62 83 72 68 54 50 48 44 42 50 47 48 52 46 49 47 44 41 42 39 32 31 31 21 20 20 20 30
98 99 98 96 95 96 97 98 99 92 87 87 69 80 76 73 62 66 70 55 49 53 50 44 41 46 51 55 48 52 50 47 48 49 43 41 33 34 31 22 17 20 23 18 28
98 99 98 85 68 76 84 80 95 98 97 86 76 78 73 58 61 58 45 47 46 44 43 41 44 45 50 50 49 52 50 47 45 45 41 40 36 30 32 26 27 28 20 22 29
96 100 88 62 49 52 55 67 82 88 90 90 85 82 58 58 58 47 40 43 42 40 40 39 40 40 46 48 48 47 48 43 40 36 32 36 29 38 23 23 29 22 16 26 30
90 86 77 68 55 51 51 49 73 81 78 76 74 70 50 50 53 46 40 42 43 40 36 41 39 36 40 48 44 41 36 35 34 29 24 29 24 28 21 24 22 17 15 23 32
90 87 76 73 61 51 47 44 68 75 70 68 67 54 44 54 52 43 42 39 40 40 41 43 39 38 38 38 37 38 35 32 34 25 24 21 24 17 21 23 20 16 14 16 29
85 88 84 74 64 52 44 52 66 71 67 60 62 44 41 51 46 43 42 34 38 39 40 40 37 40 38 34 34 28 27 24 23 22 24 23 23 16 19 19 19 15 13 14 15
82 87 88 78 67 53 43 58 62 52 55 50 46 44 46 41 40 42 42 38 34 34 34 35 37 38 36 32 29 23 26 25 23 23 24 24 25 17 15 19 17 15 14 15 16
82 84 87 84 72 55 44 56 45 40 41 46 38 38 41 38 42 35 38 37 34 32 30 37 28 25 30 35 26 27 27 30 24 25 29 25 24 20 17 18 18 17 15 17 22
81 85 87 85 76 59 45 46 51 58 38 38 36 34 36 34 36 30 37 37 32 26 31 28 24 30 34 41 35 30 29 25 25 26 26 24 24 19 19 21 21 17 20 28 28
79 84 87 86 76 62 59 59 60 62 40 39 33 30 30 32 31 30 31 30 26 28 26 22 29 32 29 36 32 28 31 28 27 26 25 26 22 22 21 26 30 24 28 29 25
80 79 91 85 72 68 56 62 66 62 61 40 38 31 33 32 37 30 27 25 28 25 29 27 28 29 30 29 28 30 27 29 31 30 30 26 28 20 20 28 30 33 30 26 22
82 78 89 87 73 63 61 57 66 63 72 37 38 35 32 34 34 34 29 26 28 28 28 30 29 30 30 27 26 31 30 31 32 30 30 27 31 20 23 22 29 29 28 24 19
86 83 87 91 74 62 62 66 63 72 71 43 37 40 38 35 36 34 32 27 29 32 33 30 31 29 27 30 28 30 29 30 31 29 48 32 31 17 22 18 21 28 25 20 20
95 88 88 86 68 61 68 61 95 86 35 45 43 39 34 40 40 37 39 40 36 49 39 36 33 31 29 31 29 29 28 53 60 61 58 34 36 20 21 19 18 26 21 20 21
97 96 98 90 78 58 69 67 88 34 34 40 42 41 40 42 41 41 43 42 38 34 42 40 41 31 27 30 30 29 30 47 53 45 32 33 31 21 24 20 19 19 18 22 23
100 100 100 88 68 68 64 98 60 25 34 46 42 43 45 46 43 43 41 37 36 35 52 58 40 35 34 29 29 35 38 32 46 43 43 29 24 22 24 21 20 20 22 23 26
99 100 99 87 64 69 90 67 40 34 46 43 38 38 50 49 50 52 43 36 39 37 41 43 62 38 39 32 33 32 32 48 65 64 51 25 26 20 28 26 21 23 24 23 24
100 100 99 86 72 78 96 64 44 43 42 46 40 49 48 54 56 52 62 45 37 43 42 50 54 45 39 40 38 44 40 48 56 59 46 38 21 20 21 21 21 20 21 24 26
97 100 100 86 99 96 88 62 50 50 51 51 48 45 44 46 55 57 51 46 35 37 39 44 86 53 46 48 45 40 62 59 56 73 67 53 35 26 24 22 21 19 21 25 30
99 99 100 100 99 99 81 70 66 60 54 56 51 44 45 46 80 58 51 47 44 40 47 49 68 73 61 54 49 57 47 66 68 56 65 51 32 28 26 27 26 26 25 24 29
99 99 100 100 96 80 84 84 66 58 56 55 55 50 53 54 54 67 57 55 45 41 48 44 62 71 46 73 71 76 75 50 54 60 44 44 32 27 28 28 26 26 28 29 31
99 99 81 97 97 83 88 95 68 71 62 58 67 53 56 79 59 59 55 59 52 52 53 68 75 66 57 47 59 60 70 79 81 53 57 34 34 29 29 30 30 30 30 34 31
99 99 97 98 76 97 92 94 70 63 74 68 72 56 56 78 52 62 65 61 59 65 82 84 81 72 70 60 58 66 57 61 67 56 50 48 49 33 30 30 35 33 32 35 31
88 91 95 98 99 98 93 74 74 63 66 57 58 62 62 54 49 47 46 48 52 78 84 84 84 82 71 60 57 63 48 46 55 56 61 67 46 35 36 39 39 38 35 33 30
Wind_Speed
15 15 13 13 13 13 13 12 11 6 4 4 3 5 4 6 9 4 6 6 5 6 4 2 0 3 3 3 1 1 6 7 5 8 6 7 7 5 1 3 1 2 4 6 5
16 17 16 15 13 13 12 11 10 9 6 5 4 2 8 9 6 8 6 8 6 4 2 3 4 6 5 4 2 6 5 5 2 3 7 8 4 6 5 6 5 7 6 5 7
16 17 18 17 15 14 13 11 9 8 5 5 2 5 7 2 3 2 8 7 6 3 3 2 2 3 4 3 2 2 4 4 4 4 4 4 4 3 5 7 7 9 7 5 6
16 17 18 18 17 15 13 10 9 7 4 2 6 8 5 3 1 1 6 6 5 1 1 3 4 6 5 6 2 4 2 3 5 4 3 3 3 4 10 1 7 6 4 4 6
16 16 17 18 16 15 14 10 7 4 2 3 10 8 2 3 2 3 5 4 3 4 2 2 6 5 6 4 5 6 5 3 4 4 4 2 7 5 9 9 6 4 4 6 6
16 16 17 18 18 14 14 10 4 3 6 5 6 5 3 4 1 3 4 2 6 3 4 1 2 2 5 3 4 2 4 4 4 5 4 5 5 4 7 10 9 9 6 7 7
17 19 18 18 18 16 13 8 2 3 3 2 2 3 3 2 1 1 3 4 4 2 4 4 5 2 5 6 3 2 4 5 7 6 3 3 8 11 7 9 13 10 6 5 7
17 19 18 19 19 17 14 6 4 4 1 1 2 3 1 2 1 1 1 5 6 7 8 6 7 7 1 6 4 3 3 5 6 4 4 4 2 6 8 10 12 8 6 5 10
19 20 18 18 19 17 12 3 4 4 3 2 3 3 1 2 3 2 2 3 4 5 5 5 2 3 5 5 4 4 2 4 5 3 1 7 4 8 7 5 10 11 9 7 10
18 19 20 18 18 16 8 2 2 3 3 1 1 3 4 4 4 3 2 2 1 4 4 2 2 3 4 5 2 4 3 3 3 3 5 10 13 10 11 9 13 13 9 7 10
16 18 19 20 18 13 5 1 3 4 6 5 2 0 4 5 4 3 3 4 3 3 4 1 5 4 3 2 3 3 1 3 1 2 4 5 10 13 12 13 13 12 7 5 9
16 17 17 19 19 8 3 2 1 2 5 5 3 2 3 5 4 5 5 5 4 4 3 4 3 4 6 4 2 1 2 3 3 1 5 9 16 8 3 2 2 5 7 10 11
16 15 16 16 17 6 1 2 2 2 5 4 5 4 4 8 3 10 6 4 3 5 4 3 4 7 5 5 4 3 4 3 4 7 5 11 5 7 4 3 5 5 8 9 9
17 15 14 12 8 3 2 4 5 2 3 6 7 5 5 4 4 3 3 2 3 4 3 2 4 6 5 4 5 3 1 1 3 7 4 6 4 6 6 5 6 9 10 9 8
17 14 13 8 5 3 2 7 7 1 4 8 5 4 5 5 8 4 1 3 4 4 4 4 7 7 5 1 6 4 1 2 3 5 6 3 4 5 6 7 8 8 8 7 3
19 15 13 8 6 6 5 10 5 2 7 8 5 7 8 5 5 5 3 2 2 2 1 2 1 2 2 4 2 8 3 1 2 2 3 1 3 4 6 9 12 10 10 8 5
22 18 16 12 3 9 11 4 3 5 3 7 6 8 10 7 6 7 7 8 5 5 6 3 4 2 2 4 3 4 4 2 2 3 1 2 4 8 3 3 10 14 13 8 0
23 21 19 16 11 13 7 2 7 3 6 3 5 9 9 10 5 8 6 7 8 5 3 6 5 7 3 2 1 3 3 2 3 2 2 3 6 0 1 4 7 11 12 6 3
15 23 17 20 15 17 4 5 7 8 7 12 8 6 8 5 4 8 9 5 5 12 6 5 3 3 3 1 2 5 3 2 3 1 3 2 5 10 7 7 11 13 12 8 5
23 14 6 27 23 13 3 9 7 4 8 7 11 11 13 12 10 10 10 5 7 7 1 5 4 1 3 2 6 2 8 2 0 3 4 4 7 7 9 15 15 15 14 11 9
12 3 12 32 25 5 7 9 7 4 6 9 11 7 6 8 9 8 6 5 6 7 5 4 1 5 3 7 6 4 3 1 1 2 3 3 3 1 3 11 16 16 13 10 10
5 8 20 37 4 3 9 6 2 6 3 3 4 4 10 12 10 9 11 2 11 12 8 4 2 4 2 2 2 1 3 6 4 4 1 3 7 2 3 4 9 11 11 9 11
2 2 12 4 6 6 5 7 4 6 7 8 9 4 3 9 4 5 7 3 11 11 10 9 3 4 3 3 3 5 6 4 3 1 8 4 3 1 1 4 7 10 12 14 16
4 3 2 2 3 15 13 8 9 6 4 3 5 5 5 4 2 7 7 3 7 5 5 8 4 4 3 4 4 5 7 12 10 5 6 14 13 10 8 9 11 14 17 15 12
4 4 6 7 9 8 12 6 14 8 4 6 3 9 10 5 6 7 6 6 4 6 4 3 4 3 4 3 4 5 6 13 14 17 9 11 13 19 15 16 15 15 13 11 13
5 4 4 2 13 13 13 9 11 8 10 7 6 15 10 8 10 12 10 8 6 6 4 0 2 2 3 3 9 13 19 19 19 21 23 25 28 23 19 7 7 11 11 12 12
6 5 4 9 13 13 15 22 15 11 9 4 14 10 12 7 4 2 4 10 11 10 7 7 7 4 3 1 5 12 21 21 14 12 17 16 13 9 7 7 9 11 11 13 12
Wind_Direction
350 353 358 2 2 359 355 354 350 323 323 352 339 317 83 114 124 124 61 349 341 316 295 271 218 155 164 130 102 238 229 226 211 187 156 155 181 157 82 199 139 100 99 78 59
349 351 352 357 360 359 357 354 352 349 338 278 283 157 132 117 122 93 2 356 353 345 210 215 167 172 156 146 150 227 235 214 70 127 159 157 200 162 198 179 175 156 127 93 111
350 351 349 352 356 357 357 351 348 343 338 322 215 184 149 90 201 93 352 356 356 18 79 120 136 191 170 190 156 176 259 156 147 128 145 159 202 209 211 214 197 184 152 119 131
351 348 349 353 354 350 350 347 345 345 333 334 167 166 155 291 261 76 348 353 12 16 187 165 180 182 189 186 151 197 158 171 156 138 160 199 153 209 223 305 158 133 120 135 151
346 348 348 350 353 350 346 348 352 350 96 94 152 168 254 229 106 331 353 7 31 40 64 185 195 177 190 166 162 217 172 187 167 185 249 205 222 237 228 200 154 140 155 165 157
339 342 347 349 353 347 345 339 346 91 105 117 162 185 266 267 38 1 21 59 60 81 75 66 169 127 123 141 218 135 182 189 211 212 211 216 210 207 214 212 196 173 162 171 170
325 336 343 346 347 343 336 323 270 153 122 112 187 198 241 85 101 29 42 58 67 105 109 90 118 176 144 140 122 143 207 195 206 182 184 221 225 228 156 158 170 178 160 179 178
317 325 336 341 342 340 332 305 221 188 152 29 191 219 324 167 190 130 125 79 81 81 100 97 112 103 83 126 143 196 221 200 151 188 157 228 214 165 170 191 196 190 265 236 202
315 316 327 335 338 337 333 289 209 215 255 250 217 242 184 173 209 159 161 135 105 90 90 106 100 97 158 182 176 188 224 211 161 185 215 226 284 167 170 205 226 262 281 264 209
306 310 318 328 334 332 328 211 212 251 229 200 162 224 172 180 149 162 133 146 168 143 153 185 160 179 170 201 256 168 190 192 233 128 249 252 258 235 246 270 260 267 271 242 213
298 303 308 320 329 328 335 165 209 206 216 251 152 343 140 127 140 168 158 161 174 202 207 131 225 207 148 136 76 107 170 266 228 4 287 255 271 273 277 271 252 239 200 180 176
293 295 299 313 322 316 312 236 44 2 261 210 205 171 147 170 157 173 180 202 210 200 167 199 215 117 112 128 133 160 273 283 296 196 295 290 286 292 196 105 157 172 164 151 147
288 286 292 304 317 296 149 174 169 135 260 195 191 184 170 181 198 171 197 158 202 192 198 251 113 148 157 159 199 211 255 286 300 315 242 303 231 169 148 128 99 125 137 146 153
274 280 283 298 304 269 203 173 153 131 270 170 192 182 151 173 187 136 184 222 178 204 183 248 145 196 194 201 211 248 138 186 298 317 297 2 301 181 169 146 128 139 148 147 150
260 264 265 259 287 253 182 157 153 217 276 134 149 117 145 196 129 156 115 176 212 166 219 99 172 175 195 152 189 79 100 318 296 272 304 154 241 114 177 188 173 155 146 146 129
247 241 245 237 241 236 180 147 140 167 248 164 140 169 163 179 158 129 156 91 66 142 334 97 41 283 42 89 105 138 155 140 141 213 239 43 275 165 177 206 175 170 169 152 133
242 228 221 209 221 181 163 196 118 213 109 176 178 175 190 171 172 186 176 182 201 165 191 171 181 142 183 161 152 205 236 243 230 208 326 131 247 284 185 190 191 179 171 169 280
229 217 207 204 209 170 167 187 204 216 195 108 141 154 186 161 181 179 178 214 212 205 158 204 195 179 156 283 192 172 274 269 276 285 347 154 238 238 103 204 189 176 178 188 293
224 194 185 186 178 169 184 214 204 209 152 156 147 174 191 180 186 184 208 212 193 192 202 164 145 103 61 106 297 138 206 7 97 43 266 234 260 233 204 182 187 190 199 221 291
192 172 218 178 170 157 201 233 227 172 134 168 194 197 190 182 179 196 189 169 166 186 190 156 124 147 118 157 68 296 133 162 119 229 253 222 268 248 189 203 201 207 217 238 285
174 168 175 178 153 165 217 219 241 209 171 177 198 166 187 185 199 186 186 156 170 144 133 147 229 129 180 207 181 148 192 90 74 295 274 295 250 76 181 204 205 217 224 260 297
209 207 174 156 163 191 211 207 206 190 194 165 158 138 180 168 181 208 197 215 166 157 169 152 113 167 145 94 356 271 184 196 236 185 243 327 269 126 273 262 222 220 232 270 289
214 118 162 188 203 183 170 228 260 182 197 182 187 184 153 170 167 191 189 128 162 165 160 173 177 150 170 173 177 227 187 151 108 171 210 222 248 90 219 194 198 224 251 283 305
151 157 157 188 275 214 187 214 209 199 210 186 146 128 134 157 116 163 153 145 181 184 152 145 171 247 275 93 124 193 192 203 201 214 206 232 275 229 221 230 252 265 283 294 292
169 201 190 193 218 210 175 184 198 187 218 191 182 211 162 136 153 168 156 131 155 161 129 178 215 195 272 203 194 228 193 195 208 219 224 264 256 269 285 289 289 291 291 288 292
186 170 177 195 188 187 186 198 204 180 165 201 227 190 187 158 186 182 151 177 179 158 145 58 154 166 259 217 230 255 254 232 225 235 245 259 271 283 284 291 267 271 287 285 289
223 175 180 174 181 181 203 207 203 169 209 202 191 168 204 205 123 67 145 153 157 152 152 156 152 171 246 149 277 264 253 229 217 224 227 239 246 235 262 259 272 287 296 295 292